TimeJST,TemperatureF,Dew PointF,Humidity,Sea Level PressureIn,VisibilityMPH,Wind Direction,Wind SpeedMPH,Gust SpeedMPH,PrecipitationIn,Events,Conditions,WindDirDegrees,DateUTC
7:00 AM,59.0,57.2,94,29.44,6.2,North,4.6,-,N/A,Rain,Light Rain,10,2013-08-29 22:00:00
7:44 AM,59.0,57.2,94,29.44,6.2,NE,4.6,-,N/A,Rain,Light Rain,50,2013-08-29 22:44:00
8:00 AM,59.0,57.2,94,29.42,6.2,ENE,5.8,-,N/A,,Mostly Cloudy,60,2013-08-29 23:00:00
9:00 AM,60.8,57.2,88,29.42,6.2,SSE,4.6,-,N/A,Rain,Light Rain,160,2013-08-30 00:00:00
10:00 AM,60.8,59.0,94,29.42,6.2,NNE,4.6,-,N/A,,Mostly Cloudy,30,2013-08-30 01:00:00
11:00 AM,60.8,59.0,94,29.44,2.2,North,8.1,-,N/A,Rain,Rain Showers,10,2013-08-30 02:00:00
11:21 AM,60.8,59.0,94,29.44,3.1,NNE,8.1,-,N/A,Rain,Light Rain Showers,20,2013-08-30 02:21:00
11:28 AM,60.8,59.0,94,29.44,-9999.0,NNE,8.1,-,N/A,Rain,Rain Showers,30,2013-08-30 02:28:00
11:40 AM,60.8,59.0,94,29.44,3.1,NE,6.9,-,N/A,Rain,Light Rain Showers,40,2013-08-30 02:40:00
12:00 PM,60.8,59.0,94,29.44,-9999.0,NE,5.8,-,N/A,Rain,Light Rain Showers,40,2013-08-30 03:00:00
12:19 PM,60.8,59.0,94,29.44,2.5,NE,6.9,-,N/A,Rain,Light Rain Showers,50,2013-08-30 03:19:00
12:33 PM,62.6,59.0,88,29.47,3.1,NE,5.8,-,N/A,Rain,Light Rain Showers,50,2013-08-30 03:33:00
12:42 PM,62.6,59.0,88,29.47,-9999.0,NE,6.9,-,N/A,Rain,Light Rain Showers,50,2013-08-30 03:42:00
1:00 PM,62.6,59.0,88,29.47,2.8,NE,5.8,-,N/A,Rain,Light Rain Showers,50,2013-08-30 04:00:00
1:47 PM,62.6,59.0,88,29.47,3.1,North,6.9,-,N/A,Rain,Light Rain Showers,360,2013-08-30 04:47:00
2:00 PM,62.6,60.8,94,29.47,3.7,North,5.8,-,N/A,Rain,Light Rain Showers,10,2013-08-30 05:00:00
3:00 PM,62.6,59.0,88,29.50,4.3,North,5.8,-,N/A,,Light Drizzle,350,2013-08-30 06:00:00
3:37 PM,62.6,60.8,94,29.50,-9999.0,North,5.8,-,N/A,,Light Drizzle,360,2013-08-30 06:37:00
4:00 PM,62.6,60.8,94,29.53,2.5,NNW,4.6,-,N/A,,Light Drizzle,340,2013-08-30 07:00:00
4:09 PM,62.6,60.8,94,29.53,2.5,NNW,4.6,-,N/A,,Light Drizzle,340,2013-08-30 07:09:00
4:24 PM,62.6,60.8,94,29.53,3.1,NNW,3.5,-,N/A,,Light Drizzle,330,2013-08-30 07:24:00
4:40 PM,62.6,60.8,94,29.53,-9999.0,NW,4.6,-,N/A,,Light Drizzle,320,2013-08-30 07:40:00
5:00 PM,62.6,60.8,94,29.56,2.5,NW,5.8,-,N/A,,Light Drizzle,310,2013-08-30 08:00:00
5:06 PM,62.6,60.8,94,29.56,2.2,NW,5.8,-,N/A,,Light Drizzle,320,2013-08-30 08:06:00
5:41 PM,62.6,60.8,94,29.56,2.8,NNW,8.1,-,N/A,,Light Drizzle,330,2013-08-30 08:41:00
6:00 PM,60.8,60.8,100,29.59,2.5,NNW,9.2,-,N/A,,Light Drizzle,340,2013-08-30 09:00:00
6:37 PM,60.8,59.0,94,29.59,2.2,NNW,10.4,-,N/A,,Light Drizzle,340,2013-08-30 09:37:00
7:00 PM,60.8,59.0,94,29.62,2.5,NNW,9.2,-,N/A,,Light Drizzle,330,2013-08-30 10:00:00
7:14 PM,60.8,59.0,94,29.62,3.1,NW,9.2,-,N/A,,Light Drizzle,320,2013-08-30 10:14:00
8:00 PM,59.0,57.2,94,29.65,4.3,NW,6.9,-,N/A,,Light Drizzle,320,2013-08-30 11:00:00